Location: Amherst
(42.3800°N, 72.5240°W)
Time: 11:11:35
(UTC-04:00)

ISS - Pass Details

Date: 22 May 2021
Orbit: 417 x 422 km, 51.6° (Epoch: 14 June)

Event Time Altitude Azimuth Distance (km) Brightness Sun altitude
Rises 21:33:30 0° 292° (WNW) 2,364 1.4 -12.9°
Reaches altitude 10° 21:36:09 10° 314° (NW) 1,501 0.6 -13.2°
Maximum altitude 21:38:26 17° 357° (N) 1,152 -0.9 -13.5°
Drops below altitude 10° 21:40:44 10° 40° (NE) 1,504 -0.9 -13.8°
Sets 21:43:23 0° 61° (ENE) 2,370 -0.1 -14.1°
